sat.trackr.live / text

‹ back to catalog

STARLINK-35521

NORAD 65916 · 2025-225G

PAYLOAD ACTIVE UNKNOWN

§ Identity

Operator
Country
US
Launch date
2025-10-08
Launch site
AFWTR
Launch vehicle
Mass (kg)
RCS (m²)

Purposes: comms

External: N2YO · Heavens-Above · Gunter

§ Orbital elements

Epoch: 2026-05-25T02:01:43.131936Z

Period
94.10 min
Inclination
53.1579°
Eccentricity
0.0000984
Mean motion
15.30206985 rev/d
Perigee alt
474.5 km
Apogee alt
475.9 km
Semi-major
6,853.3 km
B*
6.0328e-4
RAAN
170.8930°
Arg perigee
83.9871°
Mean anomaly
276.1242°
Rev number
3,610

§ Raw data

STARLINK-355211 65916U 25225G   26145.08452699  .00017554  00000+0  60328-3 0  99972 65916  53.1579 170.8930 0000984  83.9871 276.1242 15.30206985 36107

JSON: /api/v1/satellites/65916 · /tle

For live sub-satellite position, see the globe view (requires WebGL).

§ Visibility from observer

Set your observer location to see the next 7 days of passes ≥ 10°. The values pass through the URL so the page stays shareable.

No JS? Fill the form by hand. The geolocation button needs JavaScript.